Showing default

PORCUPINE 2, 1577

Orbit data source: Space-Track

PORCUPINE 2, 1577 is a payload satellite owned by NRL (US) in LEO that was launched on Fri, 13 Aug 1965 UTC via a THOR ABLESTAR launch vehicle from the Air Force Western Test Range (AFWTR). Payload-class satellites include a variety of spacecraft equipped with specific instruments for various scientific and technological missions. These include communications satellites like Starlink; space stations such as the ISS; scientific satellites like the Hubble; Earth observation satellites from companies like Planet Labs, Umbra, and HawkEye 360; GPS; miniature CubeSats for education and research; and military/defense satellites.

Loading next visibility...
Identifier
1577, 1965-065J
Orbit
LEO
Country
Flag of USUS
Related business
Manufacturer
NRL
Mission
Spacecraft
Bus & Motor
SURCAL, Unknown motor
Mass
5 kg wet, 5 kg dry
Launch date (UTC)
1965-08-13 (60 years ago)
Launch vehicle
THOR ABLESTAR
Launch site
Air Force Western Test Range (AFWTR)
Object type
Payload
Rocket body
Debris
Shape & HBR
Unknown
Radar Cross Section
Medium (>0.1 m² and <1 m²)

Expand to show TLE details & history
Last TLE update: 2 hours ago

TLE from 2 hours ago
0 PORCUPINE 2
1  1577U 65065J   25300.54563088  .00000157  00000-0  28437-3 0  9991
2  1577  90.0207 211.5028 0071579  41.1125 138.3354 13.36203357931588
Epoch: 2025-10-27T13:05Z
TLE epoch observation values (Epoch: 2025-10-27T13:05:42.508Z)
Latitude
-0.10413°
Longitude
158.92971°
Altitude
1,166.693 km
Speed
7.25 km/s
True Right ascension
02h 06m 00s
True Declination
0° 06' 13"
Sunlit
Object was in full shadow at epoch
Visualization orbit readout
Latitude
Unknown
Longitude
Unknown
Altitude
Unknown
Speed
Unknown
Apparent Right ascension
Unknown
Apparent Declination
Unknown
Sunlit
N/A
Visualization observer readout
Local Sidereal Time
10:43:26
Azimuth
Unknown
Elevation
Unknown
Doppler factor
Unknown
Orbital elements
Apogee altitude
1,174.2 km
Perigee altitude
1,066.851 km
Semi-major axis
7,498.662 km
Eccentricity
0.00716
Inclination
90.0207°
RAAN
211.5028°
Arg. of periapsis
41.1125°
True anomaly
138.87704°
Mean anomaly
138.3354°
Eccentric anomaly
138.60658°
Mean motion
3.34247 °/min
Orbital period
107.7 mins
BSTAR
0.00028437
Loading maneuver chart data...
Computing Atmospheric mass density...
Loading historical data...
Loading historical data...
Loading historical data...
Loading historical data...
Loading historical data...
Loading historical data...
Loading historical data...

Documentation

Showing up to 5 results
|